Location: Brachbach
(49.1847°N, 9.7240°E)
Time: 00:24:24
(UTC+00:00)

FENGYUN 3A - Pass Details

Date: 22 August 2024
Orbit: 822 x 834 km, 98.6° (Epoch: 07 September)

Event Time Altitude Azimuth Distance (km) Brightness Sun altitude
Rises 02:47:26 0° 8° (N) 3,392 7.6 -14.6°
Reaches altitude 10° 02:49:58 10° 360° (N) 2,452 6.6 -14.2°
Maximum altitude 02:54:50 35° 297° (WNW) 1,324 4.5 -13.6°
Enters shadow 02:58:06 18° 243° (WSW) 1,915 4.9 -13.2°
